DELTA 1 DEB, 42558

Orbit data source: Space-Track

DELTA 1 DEB, 42558 is space debris in SSO originally from a launch on Sun, 23 Jul 1972 UTC launched from the Air Force Western Test Range (AFWTR). Debris objects in space refer to the collection of defunct objects orbiting the Earth. Examples of debris include non-operational satellites, rocket bodies, and fragments generated from explosions, collisions, or faulty payload assembly.

Loading next visibility...
Identifier
42558, 1972-058JR
Orbit
SSO
Country
Flag of USUS
Related business
Manufacturer
Unknown
Mission
Spacecraft
Bus & Motor
Unknown
Mass
Unknown
Launch date (UTC)
1972-07-23 (53 years ago)
Launch vehicle
Unknown
Launch site
Air Force Western Test Range (AFWTR)
Object type
Payload
Rocket body
Debris
Shape & HBR
Unknown
Radar Cross Section
Small (<0.1 m²)

Expand to show TLE details & history
Last TLE update: 2 days ago

TLE from 2 days ago
0 DELTA 1 DEB
1 42558U 72058JR  25259.37105685  .00001240  00000-0  22926-3 0  9995
2 42558  97.8478 230.7442 0037574 175.6227 184.5313 14.66641851630340
Epoch: 2025-09-16T08:54Z
TLE epoch observation values (Epoch: 2025-09-16T08:54:19.311Z)
Latitude
-0.00012°
Longitude
101.60143°
Altitude
701.227 km
Speed
7.491 km/s
True Right ascension
15h 22m 58s
True Declination
0° 00' 00"
Sunlit
Object was in daylight at epoch
Visualization orbit readout
Latitude
Unknown
Longitude
Unknown
Altitude
Unknown
Speed
Unknown
Apparent Right ascension
Unknown
Apparent Declination
Unknown
Sunlit
N/A
Visualization observer readout
Local Sidereal Time
18:08:17
Azimuth
Unknown
Elevation
Unknown
Doppler factor
Unknown
Orbital elements
Apogee altitude
695.344 km
Perigee altitude
642.387 km
Semi-major axis
7,047.002 km
Eccentricity
0.00376
Inclination
97.8478°
RAAN
230.7442°
Arg. of periapsis
175.6227°
True anomaly
184.49744°
Mean anomaly
184.5313°
Eccentric anomaly
184.51436°
Mean motion
3.66891 °/min
Orbital period
98.12 mins
BSTAR
0.00022926
Loading maneuver chart data...
Computing Atmospheric mass density...

Documentation

Showing up to 5 results
|